Private Wetterstation Wechselburg
Wetterdaten: Mittwoch, 08.12.2021
Datum Zeit Temp. +2m Bodentemp. Temp.+5cm Temp. Wind Windchill X Diff Temp. Feuchte +2m Feuchte +5cm Luftdruck Regen Wind Richtung Richtung Sonnenschein Taupunkt Windchill Windben
08.12.2021 00:00 1,2 C 6,5 C 0,1 C 1,0 C 0,5 C 0,0 C 89 % 93 % 1010,2 hPa 0,0 l/m 0,0 km/h (0 Bft) O 90 0 min -0,4 C 0,5 C 0,0 km/h (0 Bft)
08.12.2021 00:05 1,1 C 6,5 C 0,0 C 0,8 C 0,2 C 0,0 C 89 % 93 % 1010,2 hPa 0,0 l/m 0,0 km/h (0 Bft) O 90 0 min -0,5 C 0,2 C 0,0 km/h (0 Bft)
08.12.2021 00:10 1,0 C 6,5 C -0,1 C 0,7 C 0,1 C 0,0 C 89 % 93 % 1009,5 hPa 0,0 l/m 0,5 km/h (0 Bft) O-NO 67 0 min -0,6 C 0,1 C 0,0 km/h (0 Bft)
08.12.2021 00:15 1,1 C 6,5 C -0,2 C 0,7 C -0,1 C 0,0 C 89 % 93 % 1009,5 hPa 0,0 l/m 0,6 km/h (0 Bft) SO 135 0 min -0,5 C -0,1 C 0,0 km/h (0 Bft)
08.12.2021 00:20 1,1 C 6,5 C -0,2 C 0,7 C -0,2 C 0,0 C 89 % 93 % 1009,5 hPa 0,0 l/m 0,2 km/h (0 Bft) O-NO 67 0 min -0,5 C -0,2 C 0,0 km/h (0 Bft)
08.12.2021 00:25 1,0 C 6,5 C -0,4 C 0,5 C -0,6 C 0,0 C 88 % 93 % 1009,5 hPa 0,0 l/m 0,0 km/h (0 Bft) W-SW 247 0 min -0,8 C -0,6 C 0,0 km/h (0 Bft)
08.12.2021 00:30 0,9 C 6,5 C -0,5 C 0,4 C -0,6 C 0,0 C 88 % 93 % 1009,8 hPa 0,0 l/m 0,2 km/h (0 Bft) O-NO 67 0 min -0,9 C -0,6 C 0,0 km/h (0 Bft)
08.12.2021 00:35 0,9 C 6,5 C -0,6 C 0,4 C -0,7 C 0,0 C 88 % 93 % 1009,8 hPa 0,0 l/m 0,2 km/h (0 Bft) O-NO 67 0 min -0,9 C -0,7 C 0,0 km/h (0 Bft)
08.12.2021 00:40 0,8 C 6,5 C -0,7 C 0,3 C -0,8 C 0,0 C 88 % 93 % 1009,8 hPa 0,0 l/m 0,0 km/h (0 Bft) O-NO 67 0 min -1,0 C -0,8 C 0,0 km/h (0 Bft)
08.12.2021 00:45 0,7 C 6,4 C -0,6 C 0,2 C -0,9 C 0,0 C 88 % 93 % 1009,8 hPa 0,0 l/m 0,0 km/h (0 Bft) O-NO 67 0 min -1,1 C -0,9 C 0,0 km/h (0 Bft)
08.12.2021 00:50 0,7 C 6,5 C -0,6 C 0,2 C -0,9 C 0,0 C 88 % 93 % 1009,8 hPa 0,0 l/m 0,0 km/h (0 Bft) O-NO 67 0 min -1,1 C -0,9 C 0,0 km/h (0 Bft)
08.12.2021 00:55 0,7 C 6,4 C -0,7 C 0,2 C -0,9 C 0,0 C 88 % 93 % 1009,8 hPa 0,0 l/m 0,2 km/h (0 Bft) O-NO 67 0 min -1,1 C -0,9 C 2,3 km/h (1 Bft)
08.12.2021 01:00 0,7 C 6,4 C -0,5 C 0,2 C -0,8 C 0,0 C 88 % 93 % 1009,8 hPa 0,0 l/m 0,3 km/h (0 Bft) O-NO 67 0 min -1,1 C -0,8 C 1,6 km/h (1 Bft)
08.12.2021 01:05 0,7 C 6,4 C -0,3 C 0,3 C -0,6 C 0,0 C 88 % 93 % 1009,8 hPa 0,0 l/m 1,4 km/h (1 Bft) N-NO 22 0 min -1,1 C -0,6 C 5,8 km/h (2 Bft)
08.12.2021 01:10 0,8 C 6,4 C -0,2 C 0,4 C -0,4 C 0,0 C 88 % 93 % 1009,2 hPa 0,0 l/m 1,9 km/h (1 Bft) O 90 0 min -1,0 C -0,4 C 9,7 km/h (2 Bft)
08.12.2021 01:15 1,1 C 6,4 C 0,0 C 0,7 C -0,2 C 0,0 C 88 % 93 % 1009,2 hPa 0,0 l/m 2,6 km/h (1 Bft) NO 45 0 min -0,7 C -0,2 C 10,0 km/h (2 Bft)
08.12.2021 01:20 1,1 C 6,4 C 0,1 C 0,7 C -0,2 C 0,0 C 88 % 93 % 1009,2 hPa 0,0 l/m 2,9 km/h (1 Bft) O-SO 112 0 min -0,7 C -0,2 C 2,7 km/h (1 Bft)
08.12.2021 01:25 1,1 C 6,4 C 0,1 C 0,8 C 0,2 C 0,0 C 88 % 93 % 1009,2 hPa 0,0 l/m 2,6 km/h (1 Bft) O-SO 112 0 min -0,7 C 0,2 C 1,6 km/h (1 Bft)
08.12.2021 01:30 1,1 C 6,4 C 0,1 C 0,8 C 0,3 C 0,0 C 88 % 92 % 1008,8 hPa 0,0 l/m 2,3 km/h (1 Bft) SO 135 0 min -0,7 C 0,3 C 1,9 km/h (1 Bft)
08.12.2021 01:35 1,1 C 6,4 C 0,2 C 0,8 C 0,3 C 0,0 C 88 % 92 % 1008,8 hPa 0,0 l/m 1,8 km/h (1 Bft) NO 45 0 min -0,7 C 0,3 C 1,8 km/h (1 Bft)
08.12.2021 01:40 1,1 C 6,4 C 0,2 C 0,8 C 0,3 C 0,0 C 88 % 92 % 1008,8 hPa 0,0 l/m 1,3 km/h (1 Bft) NO 45 0 min -0,7 C 0,3 C 2,3 km/h (1 Bft)
08.12.2021 01:45 1,2 C 6,4 C 0,2 C 0,9 C 0,3 C 0,0 C 88 % 92 % 1008,8 hPa 0,0 l/m 0,8 km/h (0 Bft) O-NO 67 0 min -0,6 C 0,3 C 0,0 km/h (0 Bft)
08.12.2021 01:50 1,2 C 6,4 C 0,1 C 0,9 C 0,2 C 0,0 C 87 % 92 % 1008,2 hPa 0,0 l/m 0,8 km/h (0 Bft) O-NO 67 0 min -0,7 C 0,2 C 2,1 km/h (1 Bft)
08.12.2021 01:55 1,1 C 6,4 C 0,0 C 0,8 C 0,1 C 0,0 C 87 % 92 % 1008,2 hPa 0,0 l/m 0,5 km/h (0 Bft) S 180 0 min -0,8 C 0,1 C 0,0 km/h (0 Bft)
08.12.2021 02:00 1,1 C 6,4 C -0,1 C 0,7 C 0,0 C 0,0 C 87 % 92 % 1008,2 hPa 0,0 l/m 0,5 km/h (0 Bft) S 180 0 min -0,8 C 0,0 C 2,3 km/h (1 Bft)
08.12.2021 02:05 1,0 C 6,4 C -0,1 C 0,6 C -0,1 C 0,0 C 87 % 92 % 1008,2 hPa 0,0 l/m 0,3 km/h (0 Bft) S 180 0 min -0,9 C -0,1 C 0,0 km/h (0 Bft)
08.12.2021 02:10 1,1 C 6,4 C -0,1 C 0,7 C -0,1 C 0,0 C 87 % 92 % 1007,9 hPa 0,0 l/m 0,5 km/h (0 Bft) O-SO 112 0 min -0,8 C -0,1 C 0,0 km/h (0 Bft)
08.12.2021 02:15 0,9 C 6,4 C -0,3 C 0,5 C -0,2 C 0,0 C 87 % 92 % 1007,9 hPa 0,0 l/m 0,3 km/h (0 Bft) O-NO 67 0 min -1,0 C -0,2 C 0,0 km/h (0 Bft)
08.12.2021 02:20 0,9 C 6,4 C -0,3 C 0,5 C -0,3 C 0,0 C 87 % 92 % 1007,9 hPa 0,0 l/m 0,2 km/h (0 Bft) NO 45 0 min -1,0 C -0,3 C 2,3 km/h (1 Bft)
08.12.2021 02:25 0,9 C 6,4 C -0,3 C 0,6 C -0,1 C 0,0 C 87 % 92 % 1007,9 hPa 0,0 l/m 1,0 km/h (0 Bft) O-SO 112 0 min -1,0 C -0,1 C 1,6 km/h (1 Bft)
08.12.2021 02:30 0,9 C 6,4 C -0,2 C 0,6 C 0,0 C 0,0 C 87 % 92 % 1007,6 hPa 0,0 l/m 1,1 km/h (1 Bft) O-NO 67 0 min -1,0 C 0,0 C 0,0 km/h (0 Bft)
08.12.2021 02:35 1,1 C 6,4 C -0,3 C 0,8 C 0,1 C 0,0 C 87 % 92 % 1007,6 hPa 0,0 l/m 1,0 km/h (0 Bft) O-NO 67 0 min -0,8 C 0,1 C 0,0 km/h (0 Bft)
08.12.2021 02:40 1,1 C 6,4 C -0,3 C 0,8 C 0,2 C 0,0 C 87 % 92 % 1007,6 hPa 0,0 l/m 1,3 km/h (1 Bft) O 90 0 min -0,8 C 0,2 C 2,7 km/h (1 Bft)
08.12.2021 02:45 1,0 C 6,4 C -0,3 C 0,8 C 0,3 C 0,0 C 86 % 92 % 1007,6 hPa 0,0 l/m 1,4 km/h (1 Bft) O-NO 67 0 min -1,1 C 0,3 C 7,1 km/h (2 Bft)
08.12.2021 02:50 1,0 C 6,3 C -0,3 C 0,8 C 0,3 C 0,0 C 86 % 92 % 1007,2 hPa 0,0 l/m 1,4 km/h (1 Bft) O-NO 67 0 min -1,1 C 0,3 C 0,0 km/h (0 Bft)
08.12.2021 02:55 1,1 C 6,3 C -0,3 C 0,8 C 0,3 C 0,0 C 86 % 92 % 1007,2 hPa 0,0 l/m 1,1 km/h (1 Bft) O-NO 67 0 min -1,0 C 0,3 C 0,0 km/h (0 Bft)
08.12.2021 03:00 1,0 C 6,3 C -0,2 C 0,8 C 0,3 C 0,0 C 86 % 92 % 1007,2 hPa 0,0 l/m 1,1 km/h (1 Bft) SW 225 0 min -1,1 C 0,3 C 3,4 km/h (1 Bft)
08.12.2021 03:05 1,1 C 6,3 C -0,2 C 0,8 C 0,3 C 0,0 C 86 % 92 % 1007,2 hPa 0,0 l/m 1,1 km/h (1 Bft) NO 45 0 min -1,0 C 0,3 C 2,9 km/h (1 Bft)
08.12.2021 03:10 1,1 C 6,3 C -0,1 C 0,9 C 0,4 C 0,0 C 86 % 92 % 1006,2 hPa 0,0 l/m 2,1 km/h (1 Bft) O-NO 67 0 min -1,0 C 0,4 C 3,4 km/h (1 Bft)
08.12.2021 03:15 1,3 C 6,3 C 0,2 C 0,6 C -0,8 C 0,0 C 86 % 91 % 1006,2 hPa 0,0 l/m 5,3 km/h (1 Bft) O-NO 67 0 min -0,8 C -2,6 C 12,7 km/h (3 Bft)
08.12.2021 03:20 1,4 C 6,3 C 0,3 C 0,6 C -1,0 C 0,0 C 86 % 91 % 1006,2 hPa 0,0 l/m 6,3 km/h (2 Bft) O-NO 67 0 min -0,7 C -3,3 C 6,4 km/h (2 Bft)
08.12.2021 03:25 1,5 C 6,3 C 0,3 C 0,8 C -0,7 C 0,0 C 85 % 91 % 1006,2 hPa 0,0 l/m 6,3 km/h (2 Bft) O-NO 67 0 min -0,7 C -3,0 C 13,5 km/h (3 Bft)
08.12.2021 03:30 1,6 C 6,2 C 0,4 C 0,9 C -0,6 C 0,0 C 85 % 91 % 1005,8 hPa 0,0 l/m 6,0 km/h (2 Bft) O-NO 67 0 min -0,6 C -2,7 C 5,0 km/h (1 Bft)
08.12.2021 03:35 1,5 C 6,2 C 0,3 C 1,1 C 0,2 C 0,0 C 85 % 90 % 1005,8 hPa 0,0 l/m 3,9 km/h (1 Bft) O-SO 112 0 min -0,7 C 0,2 C 3,7 km/h (1 Bft)
08.12.2021 03:40 1,5 C 6,2 C 0,3 C 1,3 C 0,9 C 0,0 C 84 % 90 % 1005,8 hPa 0,0 l/m 2,3 km/h (1 Bft) N 360 0 min -0,9 C 0,9 C 3,9 km/h (1 Bft)
08.12.2021 03:45 1,5 C 6,2 C 0,3 C 1,3 C 0,8 C 0,0 C 84 % 90 % 1005,8 hPa 0,0 l/m 1,9 km/h (1 Bft) SW 225 0 min -0,9 C 0,8 C 5,1 km/h (1 Bft)
08.12.2021 03:50 1,6 C 6,2 C 0,3 C 1,3 C 0,7 C 0,0 C 84 % 90 % 1006,1 hPa 0,0 l/m 1,6 km/h (1 Bft) SW 225 0 min -0,8 C 0,7 C 2,9 km/h (1 Bft)
08.12.2021 03:55 1,5 C 6,2 C 0,0 C 1,1 C 0,4 C 0,0 C 84 % 90 % 1006,1 hPa 0,0 l/m 1,0 km/h (0 Bft) O-SO 112 0 min -0,9 C 0,4 C 0,0 km/h (0 Bft)
08.12.2021 04:00 1,4 C 6,2 C -0,2 C 1,0 C 0,3 C 0,0 C 84 % 90 % 1006,1 hPa 0,0 l/m 0,5 km/h (0 Bft) O-SO 112 0 min -1,0 C 0,3 C 0,0 km/h (0 Bft)
08.12.2021 04:05 1,2 C 6,3 C -0,4 C 0,8 C -0,1 C 0,0 C 83 % 91 % 1006,1 hPa 0,0 l/m 0,3 km/h (0 Bft) W-SW 247 0 min -1,4 C -0,1 C 4,2 km/h (1 Bft)
08.12.2021 04:10 1,2 C 6,3 C -0,5 C 0,8 C 0,1 C 0,0 C 84 % 90 % 1006,0 hPa 0,0 l/m 1,0 km/h (0 Bft) O-SO 112 0 min -1,2 C 0,1 C 0,0 km/h (0 Bft)
08.12.2021 04:15 1,2 C 6,3 C -0,2 C 0,8 C 0,1 C 0,0 C 84 % 91 % 1006,0 hPa 0,0 l/m 1,3 km/h (1 Bft) O-SO 112 0 min -1,2 C 0,1 C 1,9 km/h (1 Bft)
08.12.2021 04:20 1,3 C 6,2 C -0,1 C 0,9 C 0,1 C 0,0 C 84 % 91 % 1006,0 hPa 0,0 l/m 0,5 km/h (0 Bft) O-SO 112 0 min -1,1 C 0,1 C 0,0 km/h (0 Bft)
08.12.2021 04:25 1,3 C 6,2 C -0,2 C 0,8 C -0,1 C 0,0 C 84 % 91 % 1006,0 hPa 0,0 l/m 0,3 km/h (0 Bft) O-NO 67 0 min -1,1 C -0,1 C 1,8 km/h (1 Bft)
08.12.2021 04:30 1,3 C 6,2 C -0,1 C 0,8 C -0,1 C 0,0 C 84 % 91 % 1005,9 hPa 0,0 l/m 0,6 km/h (0 Bft) O-NO 67 0 min -1,1 C -0,1 C 3,9 km/h (1 Bft)
08.12.2021 04:35 1,2 C 6,1 C -0,3 C 0,8 C -0,1 C 0,0 C 84 % 90 % 1005,9 hPa 0,0 l/m 0,8 km/h (0 Bft) O-SO 112 0 min -1,2 C -0,1 C 0,0 km/h (0 Bft)
08.12.2021 04:40 1,2 C 6,2 C -0,3 C 0,7 C -0,2 C 0,0 C 83 % 90 % 1005,9 hPa 0,0 l/m 0,8 km/h (0 Bft) O-NO 67 0 min -1,4 C -0,2 C 0,0 km/h (0 Bft)
08.12.2021 04:45 1,1 C 6,2 C -0,4 C 0,6 C -0,3 C 0,0 C 83 % 91 % 1005,9 hPa 0,0 l/m 0,2 km/h (0 Bft) O-SO 112 0 min -1,5 C -0,3 C 0,0 km/h (0 Bft)
08.12.2021 04:50 1,1 C 6,2 C -0,5 C 0,6 C -0,4 C 0,0 C 83 % 90 % 1005,8 hPa 0,0 l/m 0,2 km/h (0 Bft) O-NO 67 0 min -1,5 C -0,4 C 2,3 km/h (1 Bft)
08.12.2021 04:55 1,1 C 6,2 C -0,5 C 0,6 C -0,3 C 0,0 C 83 % 90 % 1005,8 hPa 0,0 l/m 1,1 km/h (1 Bft) O 90 0 min -1,5 C -0,3 C 1,6 km/h (1 Bft)
08.12.2021 05:00 1,0 C 6,2 C -0,5 C 0,6 C -0,3 C 0,0 C 83 % 90 % 1005,8 hPa 0,0 l/m 1,1 km/h (1 Bft) O-NO 67 0 min -1,6 C -0,3 C 0,0 km/h (0 Bft)
08.12.2021 05:05 0,9 C 6,2 C -0,6 C 0,5 C -0,4 C 0,0 C 83 % 90 % 1005,8 hPa 0,0 l/m 0,3 km/h (0 Bft) O-NO 67 0 min -1,7 C -0,4 C 0,0 km/h (0 Bft)
08.12.2021 05:10 0,8 C 6,2 C -0,7 C 0,4 C -0,4 C 0,0 C 83 % 90 % 1005,9 hPa 0,0 l/m 0,3 km/h (0 Bft) O-NO 67 0 min -1,8 C -0,4 C 0,0 km/h (0 Bft)
08.12.2021 05:15 0,8 C 6,2 C -0,9 C 0,4 C -0,4 C 0,0 C 84 % 90 % 1005,9 hPa 0,0 l/m 0,6 km/h (0 Bft) O-NO 67 0 min -1,6 C -0,4 C 0,0 km/h (0 Bft)
08.12.2021 05:20 0,7 C 6,2 C -1,0 C 0,3 C -0,5 C 0,0 C 84 % 90 % 1005,9 hPa 0,0 l/m 0,5 km/h (0 Bft) O-NO 67 0 min -1,7 C -0,5 C 0,0 km/h (0 Bft)
08.12.2021 05:25 0,5 C 6,2 C -1,3 C 0,1 C -0,7 C 0,0 C 83 % 90 % 1005,9 hPa 0,0 l/m 0,0 km/h (0 Bft) O-NO 67 0 min -2,0 C -0,7 C 0,0 km/h (0 Bft)
08.12.2021 05:30 0,4 C 6,2 C -1,3 C 0,0 C -0,7 C 0,0 C 84 % 91 % 1005,6 hPa 0,0 l/m 0,3 km/h (0 Bft) O-NO 67 0 min -2,0 C -0,7 C 1,8 km/h (1 Bft)
08.12.2021 05:35 0,3 C 6,2 C -1,3 C 0,0 C -0,7 C 0,0 C 84 % 91 % 1005,6 hPa 0,0 l/m 0,5 km/h (0 Bft) O-NO 67 0 min -2,1 C -0,7 C 0,0 km/h (0 Bft)
08.12.2021 05:40 0,3 C 6,2 C -1,4 C -0,1 C -0,9 C 0,0 C 84 % 91 % 1005,6 hPa 0,0 l/m 0,3 km/h (0 Bft) O-SO 112 0 min -2,1 C -0,9 C 0,0 km/h (0 Bft)
08.12.2021 05:45 0,1 C 6,2 C -1,5 C -0,3 C -1,2 C 0,0 C 84 % 91 % 1005,6 hPa 0,0 l/m 0,0 km/h (0 Bft) O-SO 112 0 min -2,3 C -1,2 C 0,0 km/h (0 Bft)
08.12.2021 05:50 -0,1 C 6,2 C -1,6 C -0,5 C -1,4 C 0,0 C 84 % 91 % 1005,9 hPa 0,0 l/m 0,0 km/h (0 Bft) O-SO 112 0 min -2,5 C -1,4 C 0,0 km/h (0 Bft)
08.12.2021 05:55 -0,1 C 6,2 C -1,7 C -0,6 C -1,6 C 0,0 C 84 % 91 % 1005,9 hPa 0,0 l/m 0,0 km/h (0 Bft) O-NO 67 0 min -2,5 C -1,6 C 0,0 km/h (0 Bft)
08.12.2021 06:00 -0,3 C 6,2 C -1,7 C -0,7 C -1,6 C 0,0 C 84 % 91 % 1005,9 hPa 0,0 l/m 0,0 km/h (0 Bft) O-SO 112 0 min -2,7 C -1,6 C 0,0 km/h (0 Bft)
08.12.2021 06:05 -0,3 C 6,1 C -1,7 C -0,6 C -1,3 C 0,0 C 84 % 91 % 1005,9 hPa 0,0 l/m 0,0 km/h (0 Bft) O-NO 67 0 min -2,7 C -1,3 C 0,0 km/h (0 Bft)
08.12.2021 06:10 -0,3 C 6,1 C -1,7 C -0,6 C -1,2 C 0,0 C 84 % 91 % 1006,0 hPa 0,0 l/m 0,2 km/h (0 Bft) NO 45 0 min -2,7 C -1,2 C 2,6 km/h (1 Bft)
08.12.2021 06:15 -0,1 C 6,1 C -1,3 C -0,3 C -0,6 C 0,0 C 85 % 92 % 1006,0 hPa 0,0 l/m 0,6 km/h (0 Bft) O-NO 67 0 min -2,3 C -0,6 C 2,1 km/h (1 Bft)
08.12.2021 06:20 0,0 C 6,1 C -1,1 C -0,1 C -0,4 C 0,0 C 85 % 92 % 1006,0 hPa 0,0 l/m 1,3 km/h (1 Bft) O-NO 67 0 min -2,2 C -0,4 C 1,9 km/h (1 Bft)
08.12.2021 06:25 0,5 C 6,1 C -0,7 C 0,4 C 0,2 C 0,0 C 85 % 92 % 1006,0 hPa 0,0 l/m 1,8 km/h (1 Bft) O-NO 67 0 min -1,7 C 0,2 C 1,8 km/h (1 Bft)
08.12.2021 06:30 0,7 C 6,1 C -0,5 C 0,6 C 0,5 C 0,0 C 85 % 92 % 1005,9 hPa 0,0 l/m 1,8 km/h (1 Bft) O 90 0 min -1,5 C 0,5 C 0,0 km/h (0 Bft)
08.12.2021 06:35 0,9 C 6,1 C -0,3 C 0,9 C 0,8 C 0,0 C 85 % 92 % 1005,9 hPa 0,0 l/m 1,1 km/h (1 Bft) O-NO 67 0 min -1,3 C 0,8 C 1,8 km/h (1 Bft)
08.12.2021 06:40 0,9 C 6,1 C -0,2 C 0,9 C 0,8 C 0,0 C 85 % 91 % 1005,9 hPa 0,0 l/m 0,5 km/h (0 Bft) O-NO 67 0 min -1,3 C 0,8 C 0,0 km/h (0 Bft)
08.12.2021 06:45 1,1 C 6,1 C -0,1 C 1,0 C 0,9 C 0,0 C 85 % 91 % 1005,9 hPa 0,0 l/m 1,0 km/h (0 Bft) O 90 0 min -1,1 C 0,9 C 4,5 km/h (1 Bft)
08.12.2021 06:50 1,3 C 6,1 C 0,0 C 1,2 C 1,0 C 0,0 C 85 % 91 % 1005,9 hPa 0,0 l/m 1,1 km/h (1 Bft) O-NO 67 0 min -0,9 C 1,0 C 0,0 km/h (0 Bft)
08.12.2021 06:55 1,2 C 6,1 C 0,0 C 1,1 C 1,0 C 0,0 C 84 % 91 % 1005,9 hPa 0,0 l/m 1,0 km/h (0 Bft) O 90 0 min -1,2 C 1,0 C 0,0 km/h (0 Bft)
08.12.2021 07:00 1,2 C 6,1 C 0,0 C 1,1 C 0,9 C 0,0 C 84 % 91 % 1005,9 hPa 0,0 l/m 0,3 km/h (0 Bft) O 90 0 min -1,2 C 0,9 C 0,0 km/h (0 Bft)
08.12.2021 07:05 1,3 C 6,0 C 0,1 C 1,2 C 0,9 C 0,0 C 84 % 91 % 1005,9 hPa 0,0 l/m 0,3 km/h (0 Bft) O 90 0 min -1,1 C 0,9 C 0,0 km/h (0 Bft)
08.12.2021 07:10 1,3 C 6,0 C 0,2 C 1,2 C 0,9 C 0,0 C 84 % 90 % 1005,8 hPa 0,0 l/m 0,3 km/h (0 Bft) O 90 0 min -1,1 C 0,9 C 0,0 km/h (0 Bft)
08.12.2021 07:15 1,3 C 6,0 C 0,2 C 1,2 C 0,9 C 0,0 C 83 % 90 % 1005,8 hPa 0,0 l/m 0,2 km/h (0 Bft) S 180 0 min -1,3 C 0,9 C 0,0 km/h (0 Bft)
08.12.2021 07:20 1,5 C 6,0 C 0,4 C 1,3 C 1,0 C 0,0 C 83 % 90 % 1005,8 hPa 0,0 l/m 0,3 km/h (0 Bft) O 90 0 min -1,1 C 1,0 C 0,0 km/h (0 Bft)
08.12.2021 07:25 1,4 C 6,0 C 0,3 C 1,3 C 1,0 C 0,0 C 83 % 90 % 1005,8 hPa 0,0 l/m 0,2 km/h (0 Bft) O 90 0 min -1,2 C 1,0 C 0,0 km/h (0 Bft)
08.12.2021 07:30 1,4 C 6,0 C 0,2 C 1,2 C 0,9 C 0,0 C 83 % 89 % 1006,5 hPa 0,0 l/m 0,0 km/h (0 Bft) O 90 0 min -1,2 C 0,9 C 0,0 km/h (0 Bft)
08.12.2021 07:35 1,5 C 6,0 C 0,3 C 1,3 C 0,9 C 0,0 C 83 % 89 % 1006,5 hPa 0,0 l/m 0,2 km/h (0 Bft) O-NO 67 0 min -1,1 C 0,9 C 0,0 km/h (0 Bft)
08.12.2021 07:40 1,5 C 6,0 C 0,3 C 1,3 C 0,9 C 0,0 C 83 % 89 % 1006,5 hPa 0,0 l/m 0,2 km/h (0 Bft) O-NO 67 0 min -1,1 C 0,9 C 0,0 km/h (0 Bft)
08.12.2021 07:45 1,5 C 5,9 C 0,3 C 1,3 C 1,0 C 0,0 C 83 % 89 % 1006,5 hPa 0,0 l/m 0,0 km/h (0 Bft) O-NO 67 0 min -1,1 C 1,0 C 0,0 km/h (0 Bft)
08.12.2021 07:50 1,5 C 5,9 C 0,3 C 1,4 C 1,1 C 0,0 C 83 % 89 % 1005,6 hPa 0,0 l/m 0,2 km/h (0 Bft) O-NO 67 0 min -1,1 C 1,1 C 1,9 km/h (1 Bft)
08.12.2021 07:55 1,5 C 5,9 C 0,5 C 1,4 C 1,3 C 0,0 C 82 % 89 % 1005,6 hPa 0,0 l/m 0,6 km/h (0 Bft) O-NO 67 0 min -1,2 C 1,3 C 1,6 km/h (1 Bft)
08.12.2021 08:00 1,5 C 5,9 C 0,7 C 1,5 C 1,4 C 0,0 C 82 % 89 % 1005,6 hPa 0,0 l/m 1,0 km/h (0 Bft) O 90 0 min -1,2 C 1,4 C 1,8 km/h (1 Bft)
08.12.2021 08:05 1,6 C 5,9 C 0,9 C 1,6 C 1,6 C 0,0 C 82 % 89 % 1005,6 hPa 0,0 l/m 0,6 km/h (0 Bft) O 90 0 min -1,1 C 1,6 C 0,0 km/h (0 Bft)
08.12.2021 08:10 1,7 C 5,9 C 0,9 C 1,7 C 1,7 C 0,0 C 82 % 88 % 1006,4 hPa 0,0 l/m 1,0 km/h (0 Bft) O-NO 67 0 min -1,0 C 1,7 C 1,6 km/h (1 Bft)
08.12.2021 08:15 1,9 C 5,9 C 1,1 C 1,9 C 1,9 C 0,0 C 82 % 88 % 1006,4 hPa 0,0 l/m 1,3 km/h (1 Bft) NO 45 0 min -0,8 C 1,9 C 4,8 km/h (1 Bft)
08.12.2021 08:20 1,9 C 5,9 C 1,2 C 1,9 C 1,9 C 0,0 C 82 % 87 % 1006,4 hPa 0,0 l/m 1,4 km/h (1 Bft) O 90 0 min -0,8 C 1,9 C 3,4 km/h (1 Bft)
08.12.2021 08:25 2,0 C 5,9 C 1,3 C 2,0 C 2,0 C 0,0 C 81 % 87 % 1006,4 hPa 0,0 l/m 2,1 km/h (1 Bft) NO 45 0 min -0,9 C 2,0 C 3,4 km/h (1 Bft)
08.12.2021 08:30 2,1 C 5,9 C 1,3 C 2,1 C 2,1 C 0,0 C 81 % 86 % 1006,1 hPa 0,0 l/m 2,6 km/h (1 Bft) O-NO 67 0 min -0,8 C 2,1 C 2,1 km/h (1 Bft)
08.12.2021 08:35 2,0 C 5,9 C 1,4 C 2,1 C 2,1 C 0,1 C 81 % 86 % 1006,1 hPa 0,0 l/m 2,6 km/h (1 Bft) O 90 0 min -0,9 C 2,1 C 2,4 km/h (1 Bft)
08.12.2021 08:40 2,0 C 5,9 C 1,5 C 2,2 C 2,2 C 0,2 C 81 % 86 % 1006,1 hPa 0,0 l/m 2,1 km/h (1 Bft) O-NO 67 0 min -0,9 C 2,2 C 2,6 km/h (1 Bft)
08.12.2021 08:45 2,1 C 5,9 C 1,5 C 2,2 C 2,2 C 0,1 C 80 % 85 % 1006,1 hPa 0,0 l/m 2,7 km/h (1 Bft) O 90 0 min -1,0 C 2,2 C 7,7 km/h (2 Bft)
08.12.2021 08:50 2,3 C 5,9 C 1,5 C 2,2 C 1,9 C 0,0 C 80 % 85 % 1006,2 hPa 0,0 l/m 3,4 km/h (1 Bft) O-NO 67 0 min -0,8 C 1,9 C 6,1 km/h (2 Bft)
08.12.2021 08:55 2,3 C 5,9 C 1,7 C 2,3 C 2,2 C 0,0 C 80 % 84 % 1006,2 hPa 0,0 l/m 3,1 km/h (1 Bft) O-NO 67 0 min -0,8 C 2,2 C 3,7 km/h (1 Bft)
08.12.2021 09:00 2,3 C 5,9 C 1,7 C 2,5 C 2,5 C 0,2 C 80 % 84 % 1006,2 hPa 0,0 l/m 2,1 km/h (1 Bft) O-NO 67 0 min -0,8 C 2,5 C 2,9 km/h (1 Bft)
08.12.2021 09:05 2,2 C 5,9 C 1,7 C 2,5 C 2,5 C 0,3 C 79 % 84 % 1006,2 hPa 0,0 l/m 1,8 km/h (1 Bft) S-SO 157 0 min -1,1 C 2,5 C 4,2 km/h (1 Bft)
08.12.2021 09:10 2,3 C 5,9 C 1,7 C 2,5 C 2,5 C 0,2 C 79 % 85 % 1005,6 hPa 0,0 l/m 1,8 km/h (1 Bft) O-NO 67 0 min -1,0 C 2,5 C 2,7 km/h (1 Bft)
08.12.2021 09:15 2,2 C 5,9 C 1,7 C 2,5 C 2,5 C 0,3 C 79 % 84 % 1005,6 hPa 0,0 l/m 1,3 km/h (1 Bft) O-NO 67 0 min -1,1 C 2,5 C 0,0 km/h (0 Bft)
08.12.2021 09:20 2,2 C 5,9 C 1,8 C 2,5 C 2,5 C 0,3 C 79 % 84 % 1005,6 hPa 0,0 l/m 0,8 km/h (0 Bft) N-NO 22 0 min -1,1 C 2,5 C 2,7 km/h (1 Bft)
08.12.2021 09:25 2,3 C 5,9 C 1,8 C 2,5 C 2,5 C 0,2 C 79 % 84 % 1005,6 hPa 0,0 l/m 1,3 km/h (1 Bft) O-NO 67 0 min -1,0 C 2,5 C 2,9 km/h (1 Bft)
08.12.2021 09:30 2,3 C 5,9 C 1,9 C 2,6 C 2,6 C 0,3 C 79 % 84 % 1005,4 hPa 0,0 l/m 2,6 km/h (1 Bft) N-NO 22 0 min -1,0 C 2,6 C 8,9 km/h (2 Bft)
08.12.2021 09:35 2,3 C 5,9 C 1,9 C 2,6 C 2,6 C 0,3 C 79 % 83 % 1005,4 hPa 0,0 l/m 2,9 km/h (1 Bft) NO 45 0 min -1,0 C 2,6 C 4,8 km/h (1 Bft)
08.12.2021 09:40 2,3 C 5,8 C 2,0 C 2,8 C 2,8 C 0,5 C 79 % 83 % 1005,4 hPa 0,0 l/m 2,6 km/h (1 Bft) O-NO 67 0 min -1,0 C 2,8 C 2,1 km/h (1 Bft)
08.12.2021 09:45 2,3 C 5,8 C 1,9 C 2,8 C 2,8 C 0,5 C 79 % 83 % 1005,4 hPa 0,0 l/m 2,1 km/h (1 Bft) O 90 0 min -1,0 C 2,8 C 5,0 km/h (1 Bft)
08.12.2021 09:50 2,3 C 5,8 C 2,0 C 2,8 C 2,8 C 0,5 C 79 % 83 % 1005,4 hPa 0,0 l/m 2,7 km/h (1 Bft) NO 45 0 min -1,0 C 2,8 C 3,9 km/h (1 Bft)
08.12.2021 09:55 2,4 C 5,8 C 2,1 C 2,8 C 2,8 C 0,4 C 78 % 83 % 1005,4 hPa 0,0 l/m 2,9 km/h (1 Bft) O 90 0 min -1,0 C 2,8 C 4,5 km/h (1 Bft)
08.12.2021 10:00 2,4 C 5,8 C 2,1 C 2,9 C 2,9 C 0,5 C 78 % 83 % 1005,4 hPa 0,0 l/m 2,7 km/h (1 Bft) O-NO 67 0 min -1,0 C 2,9 C 4,7 km/h (1 Bft)
08.12.2021 10:05 2,4 C 5,8 C 2,2 C 3,0 C 3,0 C 0,6 C 78 % 84 % 1005,4 hPa 0,0 l/m 2,7 km/h (1 Bft) O-SO 112 0 min -1,0 C 3,0 C 0,0 km/h (0 Bft)
08.12.2021 10:10 2,4 C 5,8 C 2,3 C 3,2 C 3,2 C 0,8 C 79 % 83 % 1005,7 hPa 0,0 l/m 2,1 km/h (1 Bft) O 90 0 min -0,9 C 3,2 C 0,0 km/h (0 Bft)
08.12.2021 10:15 2,6 C 5,8 C 2,5 C 3,6 C 3,6 C 1,0 C 79 % 83 % 1005,7 hPa 0,0 l/m 1,0 km/h (0 Bft) O-SO 112 0 min -0,7 C 3,6 C 0,0 km/h (0 Bft)
08.12.2021 10:20 2,7 C 5,8 C 2,5 C 3,6 C 3,6 C 0,9 C 78 % 83 % 1005,7 hPa 0,0 l/m 0,5 km/h (0 Bft) O-NO 67 0 min -0,7 C 3,6 C 0,0 km/h (0 Bft)
08.12.2021 10:25 2,6 C 5,8 C 2,5 C 3,6 C 3,6 C 1,0 C 78 % 83 % 1005,7 hPa 0,0 l/m 0,3 km/h (0 Bft) O-NO 67 0 min -0,8 C 3,6 C 0,0 km/h (0 Bft)
08.12.2021 10:30 2,6 C 5,8 C 2,6 C 3,7 C 3,7 C 1,1 C 78 % 83 % 1005,5 hPa 0,0 l/m 0,0 km/h (0 Bft) O-NO 67 0 min -0,8 C 3,7 C 0,0 km/h (0 Bft)
08.12.2021 10:35 2,8 C 5,8 C 2,6 C 3,8 C 3,8 C 1,0 C 78 % 83 % 1005,5 hPa 0,0 l/m 0,0 km/h (0 Bft) SW 225 0 min -0,6 C 3,8 C 0,0 km/h (0 Bft)
08.12.2021 10:40 2,8 C 5,8 C 2,7 C 3,8 C 3,8 C 1,0 C 78 % 83 % 1005,5 hPa 0,0 l/m 0,2 km/h (0 Bft) O-SO 112 0 min -0,6 C 3,8 C 0,0 km/h (0 Bft)
08.12.2021 10:45 2,8 C 5,8 C 2,7 C 3,9 C 3,9 C 1,1 C 78 % 83 % 1005,5 hPa 0,0 l/m 0,3 km/h (0 Bft) O-NO 67 0 min -0,6 C 3,9 C 0,0 km/h (0 Bft)
08.12.2021 10:50 2,8 C 5,8 C 2,8 C 4,0 C 4,0 C 1,2 C 78 % 83 % 1005,6 hPa 0,0 l/m 0,3 km/h (0 Bft) O-NO 67 0 min -0,6 C 4,0 C 0,0 km/h (0 Bft)
08.12.2021 10:55 2,9 C 5,8 C 2,9 C 4,0 C 4,0 C 1,1 C 78 % 82 % 1005,6 hPa 0,0 l/m 1,1 km/h (1 Bft) O-NO 67 0 min -0,5 C 4,0 C 2,1 km/h (1 Bft)
08.12.2021 11:00 2,9 C 5,8 C 2,8 C 3,9 C 3,9 C 1,0 C 78 % 82 % 1005,6 hPa 0,0 l/m 1,9 km/h (1 Bft) N-NO 22 0 min -0,5 C 3,9 C 3,9 km/h (1 Bft)
08.12.2021 11:05 2,8 C 5,8 C 2,8 C 3,6 C 3,6 C 0,8 C 78 % 82 % 1005,6 hPa 0,0 l/m 3,1 km/h (1 Bft) O-NO 67 0 min -0,6 C 3,6 C 4,5 km/h (1 Bft)
08.12.2021 11:10 2,8 C 5,8 C 2,7 C 3,1 C 3,1 C 0,3 C 77 % 82 % 1005,2 hPa 0,0 l/m 3,9 km/h (1 Bft) O-NO 67 0 min -0,8 C 3,1 C 6,8 km/h (2 Bft)
08.12.2021 11:15 2,8 C 5,8 C 2,6 C 3,1 C 3,1 C 0,3 C 78 % 82 % 1005,2 hPa 0,0 l/m 3,4 km/h (1 Bft) O-NO 67 0 min -0,6 C 3,1 C 2,7 km/h (1 Bft)
08.12.2021 11:20 2,8 C 5,8 C 2,6 C 3,4 C 3,4 C 0,6 C 78 % 82 % 1005,2 hPa 0,0 l/m 2,6 km/h (1 Bft) O-SO 112 0 min -0,6 C 3,4 C 3,4 km/h (1 Bft)
08.12.2021 11:25 2,8 C 5,8 C 2,6 C 3,4 C 3,4 C 0,6 C 78 % 82 % 1005,2 hPa 0,0 l/m 1,3 km/h (1 Bft) O-NO 67 0 min -0,6 C 3,4 C 5,0 km/h (1 Bft)
08.12.2021 11:30 2,8 C 5,8 C 2,6 C 3,3 C 3,3 C 0,5 C 78 % 82 % 1005,8 hPa 0,0 l/m 1,4 km/h (1 Bft) NO 45 0 min -0,6 C 3,3 C 3,2 km/h (1 Bft)
08.12.2021 11:35 2,8 C 5,8 C 2,6 C 3,4 C 3,4 C 0,6 C 78 % 81 % 1005,8 hPa 0,0 l/m 1,6 km/h (1 Bft) O-NO 67 0 min -0,6 C 3,4 C 2,6 km/h (1 Bft)
08.12.2021 11:40 2,8 C 5,8 C 2,7 C 3,4 C 3,4 C 0,6 C 78 % 82 % 1005,8 hPa 0,0 l/m 1,4 km/h (1 Bft) O-NO 67 0 min -0,6 C 3,4 C 2,3 km/h (1 Bft)
08.12.2021 11:45 2,8 C 5,8 C 2,7 C 3,5 C 3,5 C 0,7 C 78 % 82 % 1005,8 hPa 0,0 l/m 2,1 km/h (1 Bft) O 90 0 min -0,6 C 3,5 C 3,5 km/h (1 Bft)
08.12.2021 11:50 2,9 C 5,8 C 2,7 C 3,6 C 3,6 C 0,7 C 78 % 81 % 1005,0 hPa 0,0 l/m 2,3 km/h (1 Bft) O-SO 112 0 min -0,5 C 3,6 C 2,4 km/h (1 Bft)
08.12.2021 11:55 2,8 C 5,8 C 2,7 C 3,6 C 3,6 C 0,8 C 78 % 81 % 1005,0 hPa 0,0 l/m 2,4 km/h (1 Bft) O-NO 67 0 min -0,6 C 3,6 C 4,0 km/h (1 Bft)
08.12.2021 12:00 2,8 C 5,8 C 2,7 C 3,6 C 3,6 C 0,8 C 78 % 82 % 1005,0 hPa 0,0 l/m 2,7 km/h (1 Bft) O-NO 67 0 min -0,6 C 3,6 C 2,6 km/h (1 Bft)
08.12.2021 12:05 2,8 C 5,8 C 2,7 C 3,4 C 3,4 C 0,6 C 78 % 81 % 1005,0 hPa 0,0 l/m 2,9 km/h (1 Bft) O-NO 67 0 min -0,6 C 3,4 C 2,1 km/h (1 Bft)
08.12.2021 12:10 2,9 C 5,8 C 2,8 C 3,4 C 3,4 C 0,5 C 78 % 82 % 1005,1 hPa 0,0 l/m 2,3 km/h (1 Bft) O-NO 67 0 min -0,5 C 3,4 C 2,6 km/h (1 Bft)
08.12.2021 12:15 2,8 C 5,8 C 2,7 C 3,1 C 3,1 C 0,3 C 78 % 82 % 1005,1 hPa 0,0 l/m 1,6 km/h (1 Bft) O-NO 67 0 min -0,6 C 3,1 C 1,8 km/h (1 Bft)
08.12.2021 12:20 2,8 C 5,8 C 2,7 C 3,0 C 3,0 C 0,2 C 78 % 82 % 1005,1 hPa 0,0 l/m 1,0 km/h (0 Bft) O-NO 67 0 min -0,6 C 3,0 C 0,0 km/h (0 Bft)
08.12.2021 12:25 2,7 C 5,8 C 2,5 C 2,9 C 2,9 C 0,2 C 79 % 83 % 1005,1 hPa 0,0 l/m 0,6 km/h (0 Bft) O-NO 67 0 min -0,6 C 2,9 C 0,0 km/h (0 Bft)
08.12.2021 12:30 2,7 C 5,8 C 2,6 C 2,9 C 2,9 C 0,2 C 79 % 83 % 1005,2 hPa 0,0 l/m 0,5 km/h (0 Bft) O-NO 67 0 min -0,6 C 2,9 C 0,0 km/h (0 Bft)
08.12.2021 12:35 2,7 C 5,8 C 2,7 C 3,0 C 3,0 C 0,3 C 80 % 84 % 1005,2 hPa 0,0 l/m 0,6 km/h (0 Bft) O-NO 67 0 min -0,4 C 3,0 C 4,7 km/h (1 Bft)
08.12.2021 12:40 2,5 C 5,8 C 2,6 C 2,8 C 2,8 C 0,3 C 80 % 84 % 1005,2 hPa 0,0 l/m 0,8 km/h (0 Bft) N-NO 22 0 min -0,6 C 2,8 C 0,0 km/h (0 Bft)
08.12.2021 12:45 2,4 C 5,8 C 2,5 C 2,7 C 2,7 C 0,3 C 81 % 85 % 1005,2 hPa 0,0 l/m 1,3 km/h (1 Bft) NO 45 0 min -0,5 C 2,7 C 3,1 km/h (1 Bft)
08.12.2021 12:50 2,4 C 5,8 C 2,4 C 2,6 C 2,6 C 0,2 C 81 % 85 % 1005,0 hPa 0,0 l/m 1,1 km/h (1 Bft) O-NO 67 0 min -0,5 C 2,6 C 2,4 km/h (1 Bft)
08.12.2021 12:55 2,3 C 5,8 C 2,3 C 2,5 C 2,5 C 0,2 C 81 % 86 % 1005,0 hPa 0,0 l/m 1,3 km/h (1 Bft) NO 45 0 min -0,6 C 2,5 C 6,1 km/h (2 Bft)
08.12.2021 13:00 2,3 C 5,8 C 2,3 C 2,4 C 2,4 C 0,1 C 81 % 85 % 1005,0 hPa 0,0 l/m 1,3 km/h (1 Bft) O-NO 67 0 min -0,6 C 2,4 C 2,3 km/h (1 Bft)
08.12.2021 13:05 2,1 C 5,8 C 2,2 C 2,4 C 2,4 C 0,3 C 82 % 86 % 1005,0 hPa 0,0 l/m 1,8 km/h (1 Bft) O-NO 67 0 min -0,6 C 2,4 C 4,0 km/h (1 Bft)
08.12.2021 13:10 2,1 C 5,9 C 2,3 C 2,4 C 2,4 C 0,3 C 82 % 86 % 1004,9 hPa 0,0 l/m 1,3 km/h (1 Bft) O-NO 67 0 min -0,6 C 2,4 C 4,0 km/h (1 Bft)
08.12.2021 13:15 2,1 C 5,9 C 2,5 C 2,6 C 2,6 C 0,5 C 83 % 87 % 1004,9 hPa 0,0 l/m 1,4 km/h (1 Bft) O-NO 67 0 min -0,5 C 2,6 C 2,7 km/h (1 Bft)
08.12.2021 13:20 2,1 C 5,9 C 2,6 C 2,8 C 2,8 C 0,7 C 83 % 87 % 1004,9 hPa 0,0 l/m 1,4 km/h (1 Bft) O 90 0 min -0,5 C 2,8 C 0,0 km/h (0 Bft)
08.12.2021 13:25 2,0 C 5,9 C 2,5 C 2,6 C 2,6 C 0,6 C 83 % 87 % 1004,9 hPa 0,0 l/m 2,1 km/h (1 Bft) NO 45 0 min -0,6 C 2,6 C 4,0 km/h (1 Bft)
08.12.2021 13:30 1,9 C 5,9 C 2,2 C 2,4 C 2,4 C 0,5 C 84 % 87 % 1005,0 hPa 0,0 l/m 2,3 km/h (1 Bft) O-NO 67 0 min -0,5 C 2,4 C 5,6 km/h (1 Bft)
08.12.2021 13:35 1,8 C 5,9 C 2,1 C 1,9 C 1,9 C 0,1 C 83 % 87 % 1005,0 hPa 0,0 l/m 2,4 km/h (1 Bft) O-NO 67 0 min -0,8 C 1,9 C 0,0 km/h (0 Bft)
08.12.2021 13:40 1,7 C 5,9 C 1,9 C 1,7 C 1,7 C 0,0 C 83 % 87 % 1005,0 hPa 0,0 l/m 1,4 km/h (1 Bft) O-NO 67 0 min -0,9 C 1,7 C 0,0 km/h (0 Bft)
08.12.2021 13:45 1,7 C 5,9 C 1,8 C 1,6 C 1,5 C 0,0 C 84 % 88 % 1005,0 hPa 0,0 l/m 0,2 km/h (0 Bft) O-NO 67 0 min -0,7 C 1,5 C 1,8 km/h (1 Bft)
08.12.2021 13:50 1,7 C 5,9 C 1,8 C 1,6 C 1,5 C 0,0 C 84 % 88 % 1005,1 hPa 0,0 l/m 0,6 km/h (0 Bft) O-NO 67 0 min -0,7 C 1,5 C 0,0 km/h (0 Bft)
08.12.2021 13:55 1,6 C 5,9 C 1,7 C 1,5 C 1,4 C 0,0 C 84 % 88 % 1005,1 hPa 0,0 l/m 1,8 km/h (1 Bft) NO 45 0 min -0,8 C 1,4 C 2,4 km/h (1 Bft)
08.12.2021 14:00 1,5 C 5,9 C 1,5 C 1,5 C 1,4 C 0,0 C 84 % 88 % 1005,1 hPa 0,0 l/m 1,6 km/h (1 Bft) O-NO 67 0 min -0,9 C 1,4 C 3,2 km/h (1 Bft)
08.12.2021 14:05 1,5 C 5,9 C 1,5 C 1,5 C 1,5 C 0,0 C 84 % 88 % 1005,1 hPa 0,0 l/m 1,3 km/h (1 Bft) O-NO 67 0 min -0,9 C 1,5 C 0,0 km/h (0 Bft)
08.12.2021 14:10 1,5 C 5,9 C 1,5 C 1,6 C 1,6 C 0,1 C 85 % 88 % 1005,1 hPa 0,0 l/m 1,1 km/h (1 Bft) O-NO 67 0 min -0,7 C 1,6 C 2,1 km/h (1 Bft)
08.12.2021 14:15 1,5 C 5,9 C 1,5 C 1,7 C 1,7 C 0,2 C 85 % 88 % 1005,1 hPa 0,0 l/m 0,5 km/h (0 Bft) O-NO 67 0 min -0,7 C 1,7 C 3,5 km/h (1 Bft)
08.12.2021 14:20 1,3 C 6,0 C 1,5 C 1,7 C 1,7 C 0,4 C 85 % 89 % 1005,1 hPa 0,0 l/m 1,6 km/h (1 Bft) O-NO 67 0 min -0,9 C 1,7 C 2,3 km/h (1 Bft)
08.12.2021 14:25 1,3 C 6,0 C 1,5 C 1,3 C 1,2 C 0,0 C 85 % 89 % 1005,1 hPa 0,0 l/m 2,9 km/h (1 Bft) O 90 0 min -0,9 C 1,2 C 3,9 km/h (1 Bft)
08.12.2021 14:30 1,2 C 6,0 C 1,4 C 1,1 C 0,9 C 0,0 C 85 % 89 % 1004,9 hPa 0,0 l/m 3,2 km/h (1 Bft) O-NO 67 0 min -1,0 C 0,9 C 4,8 km/h (1 Bft)
08.12.2021 14:35 1,2 C 6,0 C 1,4 C 0,9 C 0,4 C 0,0 C 85 % 89 % 1004,9 hPa 0,0 l/m 3,5 km/h (1 Bft) O-NO 67 0 min -1,0 C 0,4 C 6,1 km/h (2 Bft)
08.12.2021 14:40 1,2 C 6,0 C 1,3 C 0,9 C 0,3 C 0,0 C 85 % 89 % 1004,9 hPa 0,0 l/m 3,7 km/h (1 Bft) O-NO 67 0 min -1,0 C 0,3 C 4,8 km/h (1 Bft)
08.12.2021 14:45 1,1 C 6,0 C 1,2 C 0,8 C 0,1 C 0,0 C 86 % 90 % 1004,9 hPa 0,0 l/m 3,9 km/h (1 Bft) O 90 0 min -1,0 C 0,1 C 5,6 km/h (1 Bft)
08.12.2021 14:50 1,1 C 6,0 C 1,1 C 0,8 C 0,1 C 0,0 C 86 % 90 % 1004,9 hPa 0,0 l/m 3,7 km/h (1 Bft) O-NO 67 0 min -1,0 C 0,1 C 4,2 km/h (1 Bft)
08.12.2021 14:55 1,0 C 6,0 C 1,1 C 0,7 C 0,1 C 0,0 C 86 % 90 % 1004,9 hPa 0,0 l/m 3,7 km/h (1 Bft) NO 45 0 min -1,1 C 0,1 C 5,5 km/h (1 Bft)
08.12.2021 15:00 1,1 C 6,0 C 1,1 C 0,7 C -0,2 C 0,0 C 86 % 90 % 1004,9 hPa 0,0 l/m 4,0 km/h (1 Bft) O-NO 67 0 min -1,0 C -0,2 C 3,4 km/h (1 Bft)
08.12.2021 15:05 1,0 C 6,0 C 1,0 C 0,6 C -0,1 C 0,0 C 86 % 90 % 1004,9 hPa 0,0 l/m 3,7 km/h (1 Bft) NO 45 0 min -1,1 C -0,1 C 4,2 km/h (1 Bft)
08.12.2021 15:10 1,1 C 6,0 C 1,0 C 0,9 C 0,4 C 0,0 C 86 % 90 % 1004,6 hPa 0,0 l/m 2,9 km/h (1 Bft) O-NO 67 0 min -1,0 C 0,4 C 1,8 km/h (1 Bft)
08.12.2021 15:15 1,1 C 6,0 C 1,0 C 1,0 C 0,7 C 0,0 C 87 % 90 % 1004,6 hPa 0,0 l/m 1,0 km/h (0 Bft) N-NO 22 0 min -0,8 C 0,7 C 0,0 km/h (0 Bft)
08.12.2021 15:20 1,1 C 6,0 C 0,9 C 1,0 C 0,7 C 0,0 C 87 % 90 % 1004,6 hPa 0,0 l/m 0,3 km/h (0 Bft) W 270 0 min -0,8 C 0,7 C 0,0 km/h (0 Bft)
08.12.2021 15:25 1,1 C 6,0 C 1,0 C 1,0 C 0,8 C 0,0 C 87 % 90 % 1004,6 hPa 0,0 l/m 0,0 km/h (0 Bft) W 270 0 min -0,8 C 0,8 C 0,0 km/h (0 Bft)
08.12.2021 15:30 1,1 C 6,0 C 1,0 C 1,0 C 0,8 C 0,0 C 87 % 90 % 1004,9 hPa 0,0 l/m 0,0 km/h (0 Bft) W 270 0 min -0,8 C 0,8 C 0,0 km/h (0 Bft)
08.12.2021 15:35 1,1 C 6,0 C 1,0 C 1,0 C 0,8 C 0,0 C 87 % 90 % 1004,9 hPa 0,0 l/m 0,3 km/h (0 Bft) O-NO 67 0 min -0,8 C 0,8 C 0,0 km/h (0 Bft)
08.12.2021 15:40 1,1 C 6,0 C 0,9 C 1,0 C 0,8 C 0,0 C 87 % 90 % 1004,9 hPa 0,0 l/m 0,3 km/h (0 Bft) W-SW 247 0 min -0,8 C 0,8 C 2,6 km/h (1 Bft)
08.12.2021 15:45 1,1 C 6,0 C 0,9 C 1,0 C 0,8 C 0,0 C 87 % 90 % 1004,9 hPa 0,0 l/m 0,5 km/h (0 Bft) NO 45 0 min -0,8 C 0,8 C 2,3 km/h (1 Bft)
08.12.2021 15:50 0,9 C 6,0 C 0,9 C 0,9 C 0,8 C 0,0 C 87 % 90 % 1004,9 hPa 0,0 l/m 1,8 km/h (1 Bft) W-NW 292 0 min -1,0 C 0,8 C 3,9 km/h (1 Bft)
08.12.2021 15:55 0,9 C 6,0 C 0,9 C 0,9 C 0,8 C 0,0 C 87 % 91 % 1004,9 hPa 0,0 l/m 2,1 km/h (1 Bft) N-NO 22 0 min -1,0 C 0,8 C 0,0 km/h (0 Bft)
08.12.2021 16:00 0,9 C 6,0 C 0,9 C 0,9 C 0,8 C 0,0 C 87 % 91 % 1004,9 hPa 0,0 l/m 1,0 km/h (0 Bft) NO 45 0 min -1,0 C 0,8 C 0,0 km/h (0 Bft)
08.12.2021 16:05 0,9 C 6,0 C 0,8 C 0,9 C 0,8 C 0,0 C 87 % 90 % 1004,9 hPa 0,0 l/m 0,0 km/h (0 Bft) NO 45 0 min -1,0 C 0,8 C 0,0 km/h (0 Bft)
08.12.2021 16:10 0,9 C 6,0 C 0,8 C 0,9 C 0,8 C 0,0 C 87 % 91 % 1004,7 hPa 0,0 l/m 0,0 km/h (0 Bft) O 90 0 min -1,0 C 0,8 C 0,0 km/h (0 Bft)
08.12.2021 16:15 0,9 C 6,0 C 0,8 C 0,9 C 0,8 C 0,0 C 87 % 91 % 1004,7 hPa 0,0 l/m 0,2 km/h (0 Bft) O-NO 67 0 min -1,0 C 0,8 C 0,0 km/h (0 Bft)
08.12.2021 16:20 0,9 C 6,0 C 0,8 C 0,9 C 0,8 C 0,0 C 87 % 91 % 1004,7 hPa 0,0 l/m 0,3 km/h (0 Bft) O-NO 67 0 min -1,0 C 0,8 C 1,9 km/h (1 Bft)
08.12.2021 16:25 0,9 C 6,0 C 0,8 C 0,9 C 0,8 C 0,0 C 87 % 91 % 1004,7 hPa 0,0 l/m 1,3 km/h (1 Bft) O-NO 67 0 min -1,0 C 0,8 C 2,1 km/h (1 Bft)
08.12.2021 16:30 0,9 C 6,0 C 0,7 C 0,9 C 0,8 C 0,0 C 87 % 91 % 1004,2 hPa 0,0 l/m 1,8 km/h (1 Bft) O-NO 67 0 min -1,0 C 0,8 C 3,2 km/h (1 Bft)
08.12.2021 16:35 0,9 C 6,0 C 0,7 C 0,9 C 0,8 C 0,0 C 87 % 91 % 1004,2 hPa 0,0 l/m 1,9 km/h (1 Bft) O-NO 67 0 min -1,0 C 0,8 C 2,9 km/h (1 Bft)
08.12.2021 16:40 0,9 C 6,0 C 0,7 C 0,8 C 0,7 C 0,0 C 87 % 91 % 1004,2 hPa 0,0 l/m 2,6 km/h (1 Bft) O-NO 67 0 min -1,0 C 0,7 C 4,3 km/h (1 Bft)
08.12.2021 16:45 0,9 C 6,0 C 0,7 C 0,7 C 0,3 C 0,0 C 87 % 91 % 1004,2 hPa 0,0 l/m 3,1 km/h (1 Bft) NO 45 0 min -1,0 C 0,3 C 4,5 km/h (1 Bft)
08.12.2021 16:50 0,9 C 6,0 C 0,7 C 0,7 C 0,3 C 0,0 C 87 % 91 % 1004,4 hPa 0,0 l/m 3,4 km/h (1 Bft) O-NO 67 0 min -1,0 C 0,3 C 7,1 km/h (2 Bft)
08.12.2021 16:55 0,9 C 6,0 C 0,7 C 0,6 C -0,1 C 0,0 C 87 % 91 % 1004,4 hPa 0,0 l/m 3,7 km/h (1 Bft) O-SO 112 0 min -1,0 C -0,1 C 4,5 km/h (1 Bft)
08.12.2021 17:00 0,9 C 6,0 C 0,6 C 0,6 C 0,1 C 0,0 C 87 % 91 % 1004,4 hPa 0,0 l/m 3,7 km/h (1 Bft) O-NO 67 0 min -1,0 C 0,1 C 5,3 km/h (1 Bft)
08.12.2021 17:05 0,9 C 6,1 C 0,6 C 0,6 C 0,1 C 0,0 C 87 % 91 % 1004,4 hPa 0,0 l/m 3,5 km/h (1 Bft) NO 45 0 min -1,0 C 0,1 C 3,4 km/h (1 Bft)
08.12.2021 17:10 0,9 C 6,0 C 0,6 C 0,7 C 0,3 C 0,0 C 87 % 91 % 1004,3 hPa 0,0 l/m 3,1 km/h (1 Bft) O-NO 67 0 min -1,0 C 0,3 C 2,9 km/h (1 Bft)
08.12.2021 17:15 0,9 C 6,0 C 0,6 C 0,8 C 0,6 C 0,0 C 87 % 91 % 1004,3 hPa 0,0 l/m 2,7 km/h (1 Bft) NO 45 0 min -1,0 C 0,6 C 3,4 km/h (1 Bft)
08.12.2021 17:20 0,9 C 6,0 C 0,6 C 0,9 C 0,8 C 0,0 C 87 % 91 % 1004,3 hPa 0,0 l/m 2,1 km/h (1 Bft) O-NO 67 0 min -1,0 C 0,8 C 1,8 km/h (1 Bft)
08.12.2021 17:25 0,9 C 6,0 C 0,6 C 0,9 C 0,8 C 0,0 C 87 % 91 % 1004,3 hPa 0,0 l/m 1,9 km/h (1 Bft) O-NO 67 0 min -1,0 C 0,8 C 2,7 km/h (1 Bft)
08.12.2021 17:30 0,9 C 6,0 C 0,6 C 0,8 C 0,6 C 0,0 C 87 % 91 % 1004,4 hPa 0,0 l/m 2,7 km/h (1 Bft) O-NO 67 0 min -1,0 C 0,6 C 5,6 km/h (1 Bft)
08.12.2021 17:35 0,9 C 6,1 C 0,6 C 0,7 C 0,3 C 0,0 C 87 % 90 % 1004,4 hPa 0,0 l/m 3,2 km/h (1 Bft) O-NO 67 0 min -1,0 C 0,3 C 6,1 km/h (2 Bft)
08.12.2021 17:40 0,8 C 5,9 C 0,5 C 0,6 C 0,1 C 0,0 C 87 % 90 % 1004,4 hPa 0,0 l/m 3,5 km/h (1 Bft) NO 45 0 min -1,1 C 0,1 C 3,1 km/h (1 Bft)
08.12.2021 17:45 0,9 C 6,1 C 0,6 C 0,7 C 0,3 C 0,0 C 87 % 90 % 1004,4 hPa 0,0 l/m 3,1 km/h (1 Bft) O-NO 67 0 min -1,0 C 0,3 C 2,7 km/h (1 Bft)
08.12.2021 17:50 0,9 C 5,9 C 0,6 C 0,8 C 0,7 C 0,0 C 87 % 90 % 1004,4 hPa 0,0 l/m 2,7 km/h (1 Bft) O-NO 67 0 min -1,0 C 0,7 C 5,5 km/h (1 Bft)
08.12.2021 17:55 0,9 C 5,9 C 0,6 C 0,5 C -0,4 C 0,0 C 87 % 90 % 1004,4 hPa 0,0 l/m 4,7 km/h (1 Bft) NO 45 0 min -1,0 C -1,9 C 5,8 km/h (2 Bft)
08.12.2021 18:00 0,9 C 5,9 C 0,6 C 0,5 C -0,4 C 0,0 C 86 % 90 % 1004,4 hPa 0,0 l/m 5,0 km/h (1 Bft) O-NO 67 0 min -1,2 C -2,0 C 1,9 km/h (1 Bft)
08.12.2021 18:05 0,9 C 5,9 C 0,6 C 0,8 C 0,7 C 0,0 C 86 % 90 % 1004,4 hPa 0,0 l/m 2,9 km/h (1 Bft) O-NO 67 0 min -1,2 C 0,7 C 4,7 km/h (1 Bft)
08.12.2021 18:10 0,9 C 5,9 C 0,6 C 1,0 C 1,0 C 0,1 C 86 % 90 % 1004,8 hPa 0,0 l/m 1,8 km/h (1 Bft) O-NO 67 0 min -1,2 C 1,0 C 3,1 km/h (1 Bft)
08.12.2021 18:15 0,9 C 5,9 C 0,6 C 0,8 C 0,7 C 0,0 C 86 % 89 % 1004,8 hPa 0,0 l/m 2,9 km/h (1 Bft) O-NO 67 0 min -1,2 C 0,7 C 6,0 km/h (2 Bft)
08.12.2021 18:20 1,0 C 5,9 C 0,6 C 0,8 C 0,3 C 0,0 C 86 % 89 % 1004,8 hPa 0,0 l/m 3,5 km/h (1 Bft) NO 45 0 min -1,1 C 0,3 C 4,0 km/h (1 Bft)
08.12.2021 18:25 0,9 C 5,9 C 0,6 C 0,5 C -0,4 C 0,0 C 86 % 89 % 1004,8 hPa 0,0 l/m 4,8 km/h (1 Bft) O-NO 67 0 min -1,2 C -1,9 C 4,8 km/h (1 Bft)
08.12.2021 18:30 0,9 C 5,9 C 0,5 C 0,3 C -0,8 C 0,0 C 85 % 89 % 1004,8 hPa 0,0 l/m 5,8 km/h (2 Bft) O-NO 67 0 min -1,3 C -2,9 C 8,7 km/h (2 Bft)
08.12.2021 18:35 0,9 C 5,9 C 0,5 C 0,2 C -1,1 C 0,0 C 85 % 89 % 1004,8 hPa 0,0 l/m 6,4 km/h (2 Bft) O 90 0 min -1,3 C -3,5 C 4,8 km/h (1 Bft)
08.12.2021 18:40 0,8 C 5,9 C 0,5 C 0,2 C -1,1 C 0,0 C 85 % 88 % 1004,8 hPa 0,0 l/m 6,1 km/h (2 Bft) O 90 0 min -1,4 C -3,3 C 7,1 km/h (2 Bft)
08.12.2021 18:45 0,8 C 5,9 C 0,5 C 0,4 C -0,5 C 0,0 C 85 % 89 % 1004,8 hPa 0,0 l/m 4,5 km/h (1 Bft) O-NO 67 0 min -1,4 C -0,5 C 5,0 km/h (1 Bft)
08.12.2021 18:50 0,9 C 5,9 C 0,4 C 0,4 C -0,6 C 0,0 C 85 % 89 % 1005,3 hPa 0,0 l/m 4,7 km/h (1 Bft) NO 45 0 min -1,3 C -2,1 C 7,9 km/h (2 Bft)
08.12.2021 18:55 0,9 C 5,9 C 0,4 C 0,6 C -0,1 C 0,0 C 85 % 89 % 1005,3 hPa 0,0 l/m 4,0 km/h (1 Bft) O-NO 67 0 min -1,3 C -0,1 C 3,9 km/h (1 Bft)
08.12.2021 19:00 0,8 C 5,9 C 0,4 C 0,6 C 0,3 C 0,0 C 85 % 89 % 1005,3 hPa 0,0 l/m 3,2 km/h (1 Bft) O-NO 67 0 min -1,4 C 0,3 C 3,1 km/h (1 Bft)
08.12.2021 19:05 0,8 C 5,9 C 0,3 C 0,6 C 0,3 C 0,0 C 84 % 89 % 1005,3 hPa 0,0 l/m 3,1 km/h (1 Bft) O-NO 67 0 min -1,6 C 0,3 C 5,0 km/h (1 Bft)
08.12.2021 19:10 0,8 C 5,9 C 0,3 C 0,8 C 0,7 C 0,0 C 84 % 89 % 1005,2 hPa 0,0 l/m 2,6 km/h (1 Bft) NO 45 0 min -1,6 C 0,7 C 0,0 km/h (0 Bft)
08.12.2021 19:15 0,7 C 5,9 C 0,3 C 0,7 C 0,7 C 0,0 C 84 % 89 % 1005,2 hPa 0,0 l/m 1,8 km/h (1 Bft) O-NO 67 0 min -1,7 C 0,7 C 1,6 km/h (1 Bft)
08.12.2021 19:20 0,7 C 5,9 C 0,3 C 0,7 C 0,7 C 0,0 C 84 % 89 % 1005,2 hPa 0,0 l/m 1,0 km/h (0 Bft) O-NO 67 0 min -1,7 C 0,7 C 0,0 km/h (0 Bft)
08.12.2021 19:25 0,7 C 5,8 C 0,3 C 0,7 C 0,6 C 0,0 C 84 % 89 % 1005,2 hPa 0,0 l/m 0,5 km/h (0 Bft) O 90 0 min -1,7 C 0,6 C 0,0 km/h (0 Bft)
08.12.2021 19:30 0,6 C 5,9 C 0,3 C 0,6 C 0,5 C 0,0 C 84 % 88 % 1005,4 hPa 0,0 l/m 0,3 km/h (0 Bft) O-NO 67 0 min -1,8 C 0,5 C 0,0 km/h (0 Bft)
08.12.2021 19:35 0,6 C 5,8 C 0,3 C 0,6 C 0,5 C 0,0 C 84 % 89 % 1005,4 hPa 0,0 l/m 0,0 km/h (0 Bft) NO 45 0 min -1,8 C 0,5 C 0,0 km/h (0 Bft)
08.12.2021 19:40 0,7 C 5,8 C 0,3 C 0,6 C 0,4 C 0,0 C 84 % 88 % 1005,4 hPa 0,0 l/m 0,6 km/h (0 Bft) W-NW 292 0 min -1,7 C 0,4 C 0,0 km/h (0 Bft)
08.12.2021 19:45 0,7 C 5,8 C 0,2 C 0,6 C 0,4 C 0,0 C 84 % 88 % 1005,4 hPa 0,0 l/m 1,3 km/h (1 Bft) O 90 0 min -1,7 C 0,4 C 2,3 km/h (1 Bft)
08.12.2021 19:50 0,6 C 5,8 C 0,2 C 0,5 C 0,4 C 0,0 C 84 % 88 % 1005,6 hPa 0,0 l/m 0,6 km/h (0 Bft) W 270 0 min -1,8 C 0,4 C 0,0 km/h (0 Bft)
08.12.2021 19:55 0,6 C 5,8 C 0,1 C 0,5 C 0,3 C 0,0 C 84 % 88 % 1005,6 hPa 0,0 l/m 0,5 km/h (0 Bft) S 180 0 min -1,8 C 0,3 C 1,8 km/h (1 Bft)
08.12.2021 20:00 0,5 C 5,8 C 0,1 C 0,4 C 0,3 C 0,0 C 84 % 88 % 1005,6 hPa 0,0 l/m 0,2 km/h (0 Bft) S 180 0 min -1,9 C 0,3 C 0,0 km/h (0 Bft)
08.12.2021 20:05 0,5 C 5,8 C 0,1 C 0,4 C 0,3 C 0,0 C 84 % 88 % 1005,6 hPa 0,0 l/m 0,5 km/h (0 Bft) S 180 0 min -1,9 C 0,3 C 2,4 km/h (1 Bft)
08.12.2021 20:10 0,6 C 5,8 C 0,1 C 0,5 C 0,3 C 0,0 C 84 % 88 % 1005,2 hPa 0,0 l/m 0,5 km/h (0 Bft) S 180 0 min -1,8 C 0,3 C 0,0 km/h (0 Bft)
08.12.2021 20:15 0,5 C 5,8 C 0,1 C 0,4 C 0,3 C 0,0 C 84 % 88 % 1005,2 hPa 0,0 l/m 0,3 km/h (0 Bft) S 180 0 min -1,9 C 0,3 C 0,0 km/h (0 Bft)
08.12.2021 20:20 0,5 C 5,8 C 0,1 C 0,4 C 0,3 C 0,0 C 83 % 88 % 1005,2 hPa 0,0 l/m 0,2 km/h (0 Bft) SO 135 0 min -2,0 C 0,3 C 0,0 km/h (0 Bft)
08.12.2021 20:25 0,5 C 5,8 C 0,1 C 0,4 C 0,3 C 0,0 C 84 % 88 % 1005,2 hPa 0,0 l/m 0,2 km/h (0 Bft) O-SO 112 0 min -1,9 C 0,3 C 0,0 km/h (0 Bft)
08.12.2021 20:30 0,5 C 5,8 C 0,1 C 0,4 C 0,3 C 0,0 C 83 % 88 % 1005,6 hPa 0,0 l/m 0,2 km/h (0 Bft) S 180 0 min -2,0 C 0,3 C 0,0 km/h (0 Bft)
08.12.2021 20:35 0,5 C 5,8 C 0,1 C 0,4 C 0,3 C 0,0 C 83 % 88 % 1005,6 hPa 0,0 l/m 0,0 km/h (0 Bft) S 180 0 min -2,0 C 0,3 C 0,0 km/h (0 Bft)
08.12.2021 20:40 0,5 C 5,8 C 0,0 C 0,4 C 0,2 C 0,0 C 83 % 88 % 1005,6 hPa 0,0 l/m 0,0 km/h (0 Bft) SW 225 0 min -2,0 C 0,2 C 0,0 km/h (0 Bft)
08.12.2021 20:45 0,5 C 5,8 C 0,0 C 0,4 C 0,2 C 0,0 C 83 % 88 % 1005,6 hPa 0,0 l/m 0,0 km/h (0 Bft) O 90 0 min -2,0 C 0,2 C 0,0 km/h (0 Bft)
08.12.2021 20:50 0,5 C 5,8 C 0,0 C 0,4 C 0,2 C 0,0 C 83 % 88 % 1005,6 hPa 0,0 l/m 0,0 km/h (0 Bft) O 90 0 min -2,0 C 0,2 C 0,0 km/h (0 Bft)
08.12.2021 20:55 0,5 C 5,8 C 0,0 C 0,4 C 0,2 C 0,0 C 83 % 88 % 1005,6 hPa 0,0 l/m 0,0 km/h (0 Bft) O 90 0 min -2,0 C 0,2 C 0,0 km/h (0 Bft)
08.12.2021 21:00 0,4 C 5,8 C -0,1 C 0,3 C 0,2 C 0,0 C 83 % 88 % 1005,6 hPa 0,0 l/m 0,0 km/h (0 Bft) O 90 0 min -2,1 C 0,2 C 0,0 km/h (0 Bft)
08.12.2021 21:05 0,4 C 5,8 C -0,2 C 0,3 C 0,0 C 0,0 C 83 % 88 % 1005,6 hPa 0,0 l/m 0,0 km/h (0 Bft) O 90 0 min -2,1 C 0,0 C 0,0 km/h (0 Bft)
08.12.2021 21:10 0,4 C 5,8 C -0,3 C 0,2 C -0,1 C 0,0 C 83 % 88 % 1005,7 hPa 0,0 l/m 0,0 km/h (0 Bft) O 90 0 min -2,1 C -0,1 C 0,0 km/h (0 Bft)
08.12.2021 21:15 0,4 C 5,8 C -0,3 C 0,2 C -0,2 C 0,0 C 83 % 89 % 1005,7 hPa 0,0 l/m 0,2 km/h (0 Bft) O-NO 67 0 min -2,1 C -0,2 C 2,4 km/h (1 Bft)
08.12.2021 21:20 0,4 C 5,8 C -0,2 C 0,3 C 0,0 C 0,0 C 83 % 89 % 1005,7 hPa 0,0 l/m 0,2 km/h (0 Bft) NO 45 0 min -2,1 C 0,0 C 0,0 km/h (0 Bft)
08.12.2021 21:25 0,4 C 5,8 C -0,1 C 0,3 C 0,2 C 0,0 C 83 % 89 % 1005,7 hPa 0,0 l/m 0,2 km/h (0 Bft) O-NO 67 0 min -2,1 C 0,2 C 1,6 km/h (1 Bft)
08.12.2021 21:30 0,5 C 5,8 C -0,1 C 0,4 C 0,3 C 0,0 C 83 % 89 % 1005,6 hPa 0,0 l/m 0,6 km/h (0 Bft) O-NO 67 0 min -2,0 C 0,3 C 1,6 km/h (1 Bft)
08.12.2021 21:35 0,4 C 5,8 C 0,0 C 0,4 C 0,3 C 0,0 C 84 % 89 % 1005,6 hPa 0,0 l/m 1,3 km/h (1 Bft) O-NO 67 0 min -2,0 C 0,3 C 0,0 km/h (0 Bft)
08.12.2021 21:40 0,4 C 5,8 C 0,0 C 0,4 C 0,4 C 0,0 C 84 % 89 % 1005,6 hPa 0,0 l/m 0,8 km/h (0 Bft) NO 45 0 min -2,0 C 0,4 C 0,0 km/h (0 Bft)
08.12.2021 21:45 0,4 C 5,8 C 0,1 C 0,4 C 0,4 C 0,0 C 84 % 89 % 1005,6 hPa 0,0 l/m 0,2 km/h (0 Bft) NO 45 0 min -2,0 C 0,4 C 0,0 km/h (0 Bft)
08.12.2021 21:50 0,4 C 5,8 C 0,1 C 0,4 C 0,4 C 0,0 C 84 % 89 % 1005,3 hPa 0,0 l/m 0,0 km/h (0 Bft) NO 45 0 min -2,0 C 0,4 C 1,6 km/h (1 Bft)
08.12.2021 21:55 0,4 C 5,8 C 0,1 C 0,4 C 0,4 C 0,0 C 84 % 89 % 1005,3 hPa 0,0 l/m 0,0 km/h (0 Bft) NO 45 0 min -2,0 C 0,4 C 0,0 km/h (0 Bft)
08.12.2021 22:00 0,4 C 5,8 C 0,1 C 0,4 C 0,3 C 0,0 C 84 % 89 % 1005,3 hPa 0,0 l/m 0,0 km/h (0 Bft) NO 45 0 min -2,0 C 0,3 C 0,0 km/h (0 Bft)
08.12.2021 22:05 0,4 C 5,8 C 0,1 C 0,4 C 0,3 C 0,0 C 84 % 89 % 1005,3 hPa 0,0 l/m 0,2 km/h (0 Bft) O-NO 67 0 min -2,0 C 0,3 C 1,8 km/h (1 Bft)
08.12.2021 22:10 0,4 C 5,8 C 0,1 C 0,4 C 0,3 C 0,0 C 84 % 89 % 1005,8 hPa 0,0 l/m 0,5 km/h (0 Bft) O-NO 67 0 min -2,0 C 0,3 C 1,9 km/h (1 Bft)
08.12.2021 22:15 0,4 C 5,8 C 0,1 C 0,4 C 0,4 C 0,0 C 84 % 89 % 1005,8 hPa 0,0 l/m 0,6 km/h (0 Bft) O-NO 67 0 min -2,0 C 0,4 C 0,0 km/h (0 Bft)
08.12.2021 22:20 0,4 C 5,8 C 0,1 C 0,4 C 0,4 C 0,0 C 84 % 89 % 1005,8 hPa 0,0 l/m 0,8 km/h (0 Bft) O-NO 67 0 min -2,0 C 0,4 C 1,8 km/h (1 Bft)
08.12.2021 22:25 0,4 C 5,8 C 0,1 C 0,4 C 0,4 C 0,0 C 84 % 89 % 1005,8 hPa 0,0 l/m 0,6 km/h (0 Bft) O-NO 67 0 min -2,0 C 0,4 C 0,0 km/h (0 Bft)
08.12.2021 22:30 0,4 C 5,8 C 0,2 C 0,4 C 0,4 C 0,0 C 84 % 89 % 1006,0 hPa 0,0 l/m 0,2 km/h (0 Bft) O-NO 67 0 min -2,0 C 0,4 C 0,0 km/h (0 Bft)
08.12.2021 22:35 0,4 C 5,8 C 0,2 C 0,4 C 0,4 C 0,0 C 84 % 89 % 1006,0 hPa 0,0 l/m 0,0 km/h (0 Bft) NO 45 0 min -2,0 C 0,4 C 0,0 km/h (0 Bft)
08.12.2021 22:40 0,5 C 5,8 C 0,2 C 0,5 C 0,5 C 0,0 C 84 % 89 % 1006,0 hPa 0,0 l/m 0,0 km/h (0 Bft) O-NO 67 0 min -1,9 C 0,5 C 0,0 km/h (0 Bft)
08.12.2021 22:45 0,5 C 5,8 C 0,2 C 0,5 C 0,5 C 0,0 C 84 % 89 % 1006,0 hPa 0,0 l/m 0,0 km/h (0 Bft) NO 45 0 min -1,9 C 0,5 C 0,0 km/h (0 Bft)
08.12.2021 22:50 0,5 C 5,8 C 0,2 C 0,5 C 0,5 C 0,0 C 84 % 89 % 1006,2 hPa 0,0 l/m 0,0 km/h (0 Bft) NO 45 0 min -1,9 C 0,5 C 0,0 km/h (0 Bft)
08.12.2021 22:55 0,5 C 5,8 C 0,2 C 0,5 C 0,5 C 0,0 C 84 % 89 % 1006,2 hPa 0,0 l/m 0,0 km/h (0 Bft) SO 135 0 min -1,9 C 0,5 C 0,0 km/h (0 Bft)
08.12.2021 23:00 0,5 C 5,8 C 0,3 C 0,5 C 0,5 C 0,0 C 84 % 89 % 1006,2 hPa 0,0 l/m 0,0 km/h (0 Bft) SO 135 0 min -1,9 C 0,5 C 0,0 km/h (0 Bft)
08.12.2021 23:05 0,5 C 5,8 C 0,3 C 0,5 C 0,5 C 0,0 C 84 % 89 % 1006,2 hPa 0,0 l/m 0,0 km/h (0 Bft) O-SO 112 0 min -1,9 C 0,5 C 0,0 km/h (0 Bft)
08.12.2021 23:10 0,5 C 5,8 C 0,3 C 0,6 C 0,6 C 0,1 C 84 % 89 % 1005,6 hPa 0,0 l/m 0,0 km/h (0 Bft) O-SO 112 0 min -1,9 C 0,6 C 0,0 km/h (0 Bft)
08.12.2021 23:15 0,6 C 5,8 C 0,3 C 0,6 C 0,6 C 0,0 C 84 % 89 % 1005,6 hPa 0,0 l/m 0,2 km/h (0 Bft) O-SO 112 0 min -1,8 C 0,6 C 0,0 km/h (0 Bft)
08.12.2021 23:20 0,7 C 5,8 C 0,3 C 0,7 C 0,7 C 0,0 C 84 % 89 % 1005,6 hPa 0,0 l/m 0,2 km/h (0 Bft) O-SO 112 0 min -1,7 C 0,7 C 1,6 km/h (1 Bft)
08.12.2021 23:25 0,7 C 5,8 C 0,3 C 0,7 C 0,7 C 0,0 C 84 % 89 % 1005,6 hPa 0,0 l/m 0,5 km/h (0 Bft) O-NO 67 0 min -1,7 C 0,7 C 1,6 km/h (1 Bft)
08.12.2021 23:30 0,7 C 5,8 C 0,3 C 0,7 C 0,7 C 0,0 C 84 % 89 % 1005,9 hPa 0,0 l/m 1,0 km/h (0 Bft) O-NO 67 0 min -1,7 C 0,7 C 2,9 km/h (1 Bft)
08.12.2021 23:35 0,7 C 5,8 C 0,4 C 0,8 C 0,8 C 0,1 C 84 % 88 % 1005,9 hPa 0,0 l/m 1,1 km/h (1 Bft) O-NO 67 0 min -1,7 C 0,8 C 2,9 km/h (1 Bft)
08.12.2021 23:40 0,8 C 5,8 C 0,4 C 0,8 C 0,8 C 0,0 C 84 % 88 % 1005,9 hPa 0,0 l/m 0,8 km/h (0 Bft) O-NO 67 0 min -1,6 C 0,8 C 0,0 km/h (0 Bft)
08.12.2021 23:45 0,8 C 5,8 C 0,4 C 0,8 C 0,8 C 0,0 C 84 % 88 % 1005,9 hPa 0,0 l/m 0,6 km/h (0 Bft) O-NO 67 0 min -1,6 C 0,8 C 2,1 km/h (1 Bft)
08.12.2021 23:50 0,8 C 5,8 C 0,4 C 0,9 C 0,9 C 0,1 C 83 % 88 % 1005,6 hPa 0,0 l/m 1,1 km/h (1 Bft) O-NO 67 0 min -1,8 C 0,9 C 2,9 km/h (1 Bft)
08.12.2021 23:55 0,9 C 5,8 C 0,4 C 0,9 C 0,8 C 0,0 C 83 % 88 % 1005,6 hPa 0,0 l/m 1,3 km/h (1 Bft) O-NO 67 0 min -1,7 C 0,8 C 2,1 km/h (1 Bft)
_ Min-Zeit 06:00 09:40 05:55 06:00 05:55 00:00 11:10 11:35 16:30 - 00:00 - - - 06:00 18:35 00:00
Minimum _ -0,3 C 5,8 C -1,7 C -0,7 C -1,6 C 0,0 C 77 % 81 % 1004,2 hPa - 0,0 km/h (0 Bft) - - - -2,7 C -3,5 C 0,0 km/h (0 Bft)
_ Max-Zeit 10:55 00:00 10:55 10:50 10:50 10:50 00:00 00:00 00:00 00:00 18:35 - - 00:00 12:35 10:50 03:25
Maximum _ 2,9 C 6,5 C 2,9 C 4,0 C 4,0 C 1,2 C 89 % 93 % 1010,2 hPa 0,0 l/m 6,4 km/h
O (2 Bft)
- - 0 min -0,4 C 4,0 C 13,5 km/h
O-NO (3 Bft)
Durchschnitt _ 1,2 C 6,0 C 0,7 C 1,2 C 0,9 C 0,1 C 84 % 89 % 1005,9 hPa #0,0 l/m 1,4 km/h (1 Bft) O-NO - #0 min. -1,2 C 0,8 C 2,1 km/h (1 Bft)
2021 www.wetterstation-wechselburg.de